Regional Weather Roundup
Issued by NWS Portland, ME

Home | Current Version | Previous Version | Text Only | Print | Product List | Glossary On
Versions: 1 2 3 4 5 6 7 8 9 10 11 12 13 14 15 16 17 18 19 20 21 22 23 24 25 26 27 28 29 30 31 32 33 34 35 36 37 38 39 40 41 42 43 44 45 46 47 48 49 50
000
ASUS41 KGYX 031810
RWRGYX
WEATHER ROUNDUP FOR MAINE AND NEW HAMPSHIRE
NATIONAL WEATHER SERVICE GRAY ME
200 PM EDT SUN MAY 03 2015

MEZ002-005-006-010-012-015-018-020-021-024-026-027-029-031900-
MAINE

CITY           SKY/WX    TMP DP  RH WIND       PRES   REMARKS
PORTLAND       MOSUNNY   60  44  55 S12       30.07S
6HR MIN TEMP:  45; 6HR MAX TEMP:  62;

SANFORD        MOSUNNY   66  43  42 SE7       30.06R
BAR HARBOR     SUNNY     55  45  67 S17       30.08S
WISCASSET      MOSUNNY   58  44  60 S8        30.08S
6HR MIN TEMP:  41; 6HR MAX TEMP:  58;

ROCKLAND       SUNNY     50  43  76 S10       30.08R
FRYEBURG       PTSUNNY   75  34  22 VRB5      30.02S
6HR MIN TEMP:  46; 6HR MAX TEMP:  75;

LEWISTONAUBURN MOSUNNY   70  43  37 SE9G20    30.04S
AUGUSTA        MOSUNNY   67  39  35 SW8       30.03F
6HR MIN TEMP:  40; 6HR MAX TEMP:  69;

WATERVILLE     SUNNY     72  43  35 S7        30.00S
BANGOR         MOSUNNY   67  40  37 VRB7      30.03F
6HR MIN TEMP:  44; 6HR MAX TEMP:  67;

GREENVILLE       N/A     69  30  23 MISG      29.99S
6HR MIN TEMP:  49; 6HR MAX TEMP:  70;

MILLINOCKET    SUNNY     72  33  24 E8        30.01F
6HR MIN TEMP:  44; 6HR MAX TEMP:  72;

HOULTON        SUNNY     68  29  23 VRB5      30.01S
6HR MIN TEMP:  46; 6HR MAX TEMP:  68;

PRESQUE ISLE   SUNNY     64  28  25 NE5       30.02S
6HR MIN TEMP:  45; 6HR MAX TEMP:  64;

FRENCHVILLE    SUNNY     65  25  22 CALM      30.01S
6HR MIN TEMP:  45; 6HR MAX TEMP:  66;

CARIBOU        SUNNY     66  28  24 CALM      30.01F
6HR MIN TEMP:  46; 6HR MAX TEMP:  67;

$$

NHZ002-005-008-009-011-012-014-031900-
NEW HAMPSHIRE

CITY           SKY/WX    TMP DP  RH WIND       PRES   REMARKS
PORTSMOUTH     MOSUNNY   65  45  48 SE8       30.04S
ROCHESTER      MOSUNNY   74  44  34 SE10      30.02F
6HR MIN TEMP:  47; 6HR MAX TEMP:  75;

NASHUA         MOSUNNY   74  33  22 S6        30.04S
MANCHESTER     PTSUNNY   75  30  19 NW8       30.01S
6HR MIN TEMP:  51; 6HR MAX TEMP:  76;

CONCORD        MOSUNNY   75  30  19 MISG      30.01F
6HR MIN TEMP:  50; 6HR MAX TEMP:  77;

LACONIA        PTSUNNY   73  30  20 E6        29.99S
PLYMOUTH       FAIR      74  41  30 CALM      30.00S
BERLIN         MOSUNNY   72  32  23 CALM      30.01F
6HR MIN TEMP:  40; 6HR MAX TEMP:  75;

WHITEFIELD     PTSUNNY   76  31  19 SW9       30.00F
6HR MIN TEMP:  45; 6HR MAX TEMP:  76;

JAFFREY        MOSUNNY   74  33  22 MISG      30.04S
6HR MIN TEMP:  51; 6HR MAX TEMP:  75;

KEENE          MOSUNNY   73  36  25 W5        30.02S
LEBANON        MOSUNNY   74  37  26 S7        30.01R
6HR MIN TEMP:  50; 6HR MAX TEMP:  76;

MT WASHINGTON  CLOUDY    41  28  60 W23         N/A
6HR MIN TEMP:  37; 6HR MAX TEMP:  44; 6HR PCP: TRACE;

$$

VTZ005-007-008-031900-
VERMONT

CITY           SKY/WX    TMP DP  RH WIND       PRES   REMARKS
ST JOHNSBURY     N/A     74  31  20 MISG      29.98S
MONTPELIER     PTSUNNY   69  31  24 NW6       30.05S
BURLINGTON     MOSUNNY   77  35  21 VRB3      29.99F
$$

MAZ007-012-024-CTZ003-RIZ002-NYZ038-NYZ072-031900-
SOUTHERN NEW ENGLAND AND NY

CITY           SKY/WX    TMP DP  RH WIND       PRES   REMARKS
BOSTON         MOSUNNY   59  47  64 NE10      30.07S
WORCESTER      CLOUDY    71  32  23 NW7       30.05S
NANTUCKET      MOSUNNY   52  37  56 S12       30.14S
PROVIDENCE     MOSUNNY   59  44  57 SE16G24   30.08S
HARTFORD       PTSUNNY   75  37  25 SW5       30.03S
ALBANY         PTSUNNY   79  41  25 W12       30.03F
NEW YORK CITY  MOSUNNY   74  42  31 S13       30.07S
$$

ANZ081-ANZ082-ANZ150-NHZ014-MEZ023>029-031900-
COASTAL MARINE OBSERVATIONS

STATION/POSITION TIME  TEMP    WIND        PRES    WAVE
                       AIR SEA DIR/SP/G            HT/PER
                 (UTC) (F)     (DEG/KT/KT) (MB)    (FT/S)
$$

.............KEY..............
   WCI - WIND CHILL
   TC  - TEMPERATURE IN CELSIUS
   VSB - VISIBILITY IN MILES
   HX  - HEAT INDEX
   FAIR- INDICATES FEW OR NO CLOUDS BELOW 12,000 FT, WITH NO
         SIGNIFICANT WEATHER AND/OR OBSTRUCTIONS TO VISIBILITY.




USA.gov is the U.S. government's official web portal to all federal, state and local government web resources and services.